Zurück zum Katalog

CZ-4 DEB

AktivPO
NORAD 26432·DEBRIS·🇨🇳 China

Gestartet Oct 14, 1999 von Taiyuan Satellite Launch Center

Loading…

Nächste Überflüge (nächste 24 Stunden)

TLE

AktuellSource: Space-Track

Epoche: Sep 14, 2026, 08:37 UTC

1 26432U 99057KD  26257.35951576  .00022165  00000-0  16629-2 0  9992
2 26432  98.5803  49.1732 0046835 228.3118 131.4092 15.01783209385179

Verfolge CZ-4 DEB in Echtzeit mit AllMySat

Download on the App Store